• In Latvia
  • List of Countries
  • For 7 days
  • Water Temperature
  • Satellite Maps
  • Weather Map
  • Weather Widgets
  • user-avatar
    Login

    Hourly Weather Lubango

    Today, 19 January, Thursday

    Time Temperature Precipitation Wind Pressure Humidity
    00:00 +15°C° 0.2 mm 1 mps 608 mmHg 88%
    01:00 +14°C° 0 mm 0 mps 608 mmHg 89%
    02:00 +13°C° 0.1 mm 0 mps 608 mmHg 88%
    03:00 +13°C° 0.1 mm 0 mps 608 mmHg 88%
    04:00 +13°C° 0.1 mm 0 mps 608 mmHg 87%
    05:00 +15°C° 0 mm 1 mps 608 mmHg 84%
    06:00 +15°C° 0 mm 1 mps 608 mmHg 81%
    07:00 +16°C° 0 mm 1 mps 609 mmHg 74%
    08:00 +19°C° 0 mm 1 mps 609 mmHg 67%
    09:00 +20°C° 0 mm 1 mps 610 mmHg 59%
    10:00 +22°C° 0 mm 1 mps 611 mmHg 52%
    11:00 +23°C° 0 mm 1 mps 611 mmHg 48%
    12:00 +24°C° 0 mm 1 mps 611 mmHg 45%
    13:00 +23°C° 0 mm 1 mps 610 mmHg 55%
    14:00 +22°C° 1.1 mm 1 mps 610 mmHg 58%
    15:00 +22°C° 1.1 mm 1 mps 609 mmHg 61%
    16:00 +21°C° 1.1 mm 1 mps 609 mmHg 65%
    17:00 +20°C° 1.6 mm 1 mps 609 mmHg 71%
    18:00 +19°C° 1.6 mm 1 mps 608 mmHg 77%
    19:00 +18°C° 1.6 mm 1 mps 608 mmHg 83%
    20:00 +16°C° 1 mm 1 mps 609 mmHg 85%
    21:00 +16°C° 1 mm 1 mps 609 mmHg 86%
    22:00 +16°C° 1 mm 1 mps 609 mmHg 88%
    23:00 +16°C° 1.4 mm 1 mps 609 mmHg 89%

    Tomorrow, 20 January, Friday

    Time Temperature Precipitation Wind Pressure Humidity
    00:00 +14°C° 1.4 mm 0 mps 609 mmHg 90%
    01:00 +14°C° 1.4 mm 0 mps 609 mmHg 91%
    02:00 +14°C° 1.1 mm 0 mps 609 mmHg 91%
    03:00 +14°C° 1.1 mm 0 mps 608 mmHg 91%
    04:00 +15°C° 1.1 mm 1 mps 608 mmHg 92%
    05:00 +14°C° 0.5 mm 0 mps 608 mmHg 91%
    06:00 +14°C° 0.5 mm 0 mps 608 mmHg 89%
    07:00 +14°C° 0.5 mm 0 mps 609 mmHg 88%
    08:00 +16°C° 0.2 mm 0 mps 609 mmHg 81%
    09:00 +19°C° 0.2 mm 1 mps 610 mmHg 74%
    10:00 +21°C° 0.2 mm 1 mps 610 mmHg 68%
    11:00 +22°C° 0.4 mm 1 mps 610 mmHg 64%
    12:00 +23°C° 0.4 mm 1 mps 610 mmHg 60%
    13:00 +24°C° 0.4 mm 2 mps 611 mmHg 56%
    14:00 +23°C° 0.7 mm 2 mps 610 mmHg 59%
    15:00 +23°C° 0.7 mm 2 mps 609 mmHg 63%
    16:00 +21°C° 0.7 mm 2 mps 609 mmHg 66%
    17:00 +20°C° 0.5 mm 2 mps 608 mmHg 71%
    18:00 +19°C° 0.5 mm 2 mps 608 mmHg 77%
    19:00 +18°C° 0.5 mm 1 mps 608 mmHg 82%
    20:00 +18°C° 0.4 mm 1 mps 608 mmHg 84%
    21:00 +16°C° 0.4 mm 1 mps 608 mmHg 85%
    22:00 +16°C° 0.4 mm 1 mps 609 mmHg 87%
    23:00 +16°C° 0.5 mm 1 mps 608 mmHg 88%

    Day after tomorrow, 21 January, Saturday

    Time Temperature Precipitation Wind Pressure Humidity
    00:00 +15°C° 0.5 mm 1 mps 608 mmHg 89%
    01:00 +15°C° 0.5 mm 1 mps 608 mmHg 89%
    02:00 +14°C° 0.2 mm 0 mps 607 mmHg 89%
    03:00 +13°C° 0.2 mm 0 mps 607 mmHg 89%
    04:00 +13°C° 0.2 mm 0 mps 607 mmHg 89%
    05:00 +14°C° 0.2 mm 0 mps 607 mmHg 86%
    06:00 +15°C° 0.2 mm 0 mps 608 mmHg 83%
    07:00 +15°C° 0.2 mm 0 mps 609 mmHg 80%
    08:00 +18°C° 0.2 mm 0 mps 609 mmHg 71%
    09:00 +22°C° 0.2 mm 1 mps 610 mmHg 61%
    10:00 +24°C° 0.2 mm 1 mps 611 mmHg 52%
    11:00 +25°C° 0.3 mm 1 mps 611 mmHg 50%
    12:00 +26°C° 0.3 mm 1 mps 611 mmHg 48%
    13:00 +26°C° 0.3 mm 2 mps 610 mmHg 47%
    14:00 +25°C° 0.2 mm 2 mps 610 mmHg 49%
    15:00 +25°C° 0.2 mm 2 mps 609 mmHg 52%
    16:00 +24°C° 0.2 mm 2 mps 609 mmHg 54%
    17:00 +21°C° 0.2 mm 2 mps 609 mmHg 60%
    18:00 +20°C° 0.2 mm 2 mps 608 mmHg 65%
    19:00 +18°C° 0.2 mm 2 mps 608 mmHg 71%
    20:00 +18°C° 0.1 mm 1 mps 608 mmHg 73%
    21:00 +18°C° 0.1 mm 1 mps 609 mmHg 76%
    22:00 +16°C° 0.1 mm 1 mps 609 mmHg 78%
    23:00 +16°C° 0.1 mm 1 mps 608 mmHg 80%

    22 January, Sunday

    Time Temperature Precipitation Wind Pressure Humidity
    00:00 +15°C° 0.1 mm 1 mps 608 mmHg 81%
    01:00 +15°C° 0.1 mm 1 mps 608 mmHg 82%
    02:00 +13°C° 0.1 mm 0 mps 607 mmHg 83%
    03:00 +13°C° 0.1 mm 0 mps 607 mmHg 83%
    04:00 +13°C° 0.1 mm 0 mps 606 mmHg 84%
    05:00 +14°C° 0.1 mm 0 mps 607 mmHg 80%
    06:00 +15°C° 0.1 mm 0 mps 608 mmHg 77%
    07:00 +16°C° 0.1 mm 0 mps 609 mmHg 73%
    08:00 +20°C° 0.1 mm 1 mps 610 mmHg 64%
    09:00 +22°C° 0.1 mm 1 mps 611 mmHg 55%
    10:00 +25°C° 0.1 mm 1 mps 612 mmHg 47%
    11:00 +26°C° 0.4 mm 1 mps 612 mmHg 44%
    12:00 +27°C° 0.4 mm 1 mps 611 mmHg 41%
    13:00 +28°C° 0.4 mm 1 mps 611 mmHg 39%
    14:00 +27°C° 0.4 mm 2 mps 610 mmHg 42%
    15:00 +26°C° 0.4 mm 2 mps 609 mmHg 44%
    16:00 +25°C° 0.4 mm 2 mps 609 mmHg 47%
    17:00 +23°C° 0.2 mm 2 mps 608 mmHg 54%
    18:00 +20°C° 0.2 mm 2 mps 608 mmHg 60%
    19:00 +18°C° 0.2 mm 2 mps 608 mmHg 67%
    20:00 +17°C° 0 mm 2 mps 608 mmHg 71%
    21:00 +16°C° 0 mm 1 mps 608 mmHg 75%
    22:00 +16°C° 0 mm 1 mps 608 mmHg 78%
    23:00 +15°C° 0 mm 1 mps 608 mmHg 80%

    23 January, Monday

    Time Temperature Precipitation Wind Pressure Humidity
    00:00 +15°C° 0 mm 1 mps 608 mmHg 81%
    01:00 +14°C° 0 mm 1 mps 607 mmHg 83%
    02:00 +14°C° 0.1 mm 1 mps 607 mmHg 84%
    03:00 +14°C° 0.1 mm 1 mps 607 mmHg 84%
    04:00 +14°C° 0.1 mm 1 mps 607 mmHg 85%
    05:00 +14°C° 0 mm 1 mps 607 mmHg 82%
    06:00 +15°C° 0 mm 1 mps 608 mmHg 80%
    07:00 +15°C° 0 mm 1 mps 609 mmHg 77%
    08:00 +19°C° 0.2 mm 1 mps 610 mmHg 69%
    09:00 +21°C° 0.2 mm 1 mps 611 mmHg 61%
    10:00 +23°C° 0.2 mm 1 mps 612 mmHg 53%
    11:00 +24°C° 0.4 mm 1 mps 611 mmHg 50%
    12:00 +26°C° 0.4 mm 1 mps 611 mmHg 46%
    13:00 +27°C° 0.4 mm 1 mps 611 mmHg 43%
    14:00 +26°C° 0.4 mm 2 mps 611 mmHg 47%
    15:00 +25°C° 0.4 mm 2 mps 610 mmHg 51%
    16:00 +24°C° 0.4 mm 3 mps 609 mmHg 55%
    17:00 +21°C° 0.4 mm 2 mps 609 mmHg 64%
    18:00 +19°C° 0.4 mm 2 mps 609 mmHg 72%
    19:00 +17°C° 0.4 mm 2 mps 609 mmHg 81%
    20:00 +16°C° 0.3 mm 2 mps 609 mmHg 84%
    21:00 +16°C° 0.3 mm 2 mps 609 mmHg 87%
    22:00 +15°C° 0.3 mm 1 mps 610 mmHg 90%
    23:00 +15°C° 0.3 mm 1 mps 609 mmHg 91%

    24 January, Tuesday

    Time Temperature Precipitation Wind Pressure Humidity
    00:00 +15°C° 0.3 mm 1 mps 609 mmHg 92%
    01:00 +14°C° 0.3 mm 1 mps 608 mmHg 93%
    02:00 +14°C° 0.1 mm 1 mps 608 mmHg 93%
    03:00 +14°C° 0.1 mm 1 mps 608 mmHg 94%
    04:00 +14°C° 0.1 mm 1 mps 608 mmHg 94%
    05:00 +14°C° 0.5 mm 1 mps 608 mmHg 92%
    06:00 +15°C° 0.5 mm 1 mps 609 mmHg 90%
    07:00 +14°C° 0.5 mm 0 mps 609 mmHg 89%
    08:00 +16°C° 0.2 mm 1 mps 610 mmHg 83%
    09:00 +18°C° 0.2 mm 1 mps 610 mmHg 78%
    10:00 +19°C° 0.2 mm 1 mps 610 mmHg 73%
    11:00 +20°C° 0.2 mm 1 mps 610 mmHg 71%
    12:00 +20°C° 0.2 mm 2 mps 610 mmHg 68%
    13:00 +20°C° 0.2 mm 2 mps 610 mmHg 66%
    14:00 +20°C° 0.1 mm 2 mps 610 mmHg 66%
    15:00 +20°C° 0.1 mm 2 mps 609 mmHg 66%
    16:00 +20°C° 0.1 mm 2 mps 609 mmHg 66%
    17:00 +19°C° 0.1 mm 2 mps 609 mmHg 72%
    18:00 +18°C° 0.1 mm 2 mps 609 mmHg 78%
    19:00 +16°C° 0.1 mm 1 mps 609 mmHg 84%
    20:00 +16°C° 0 mm 1 mps 609 mmHg 86%
    21:00 +16°C° 0 mm 1 mps 609 mmHg 88%
    22:00 +15°C° 0 mm 1 mps 609 mmHg 90%
    23:00 +15°C° 0.1 mm 1 mps 609 mmHg 91%
    Show more